map of CFU home
CFU - Airport
Location
City:  Kerkyra, Corfu, Ionía Nísia (Ionian Islands), Greece
Name:Ioannis Kapodistrias International Airport
ICAO:LGKR
IATA:CFU

Details
Type:Airport (Aerodrome, Airfield)
Use:Public/Civil, International (customs port of entry)
Latitude:39°36'07"N (39.601944)
Longitude:19°54'42"E (19.911667)
Datum:WGS 1984
Elevation:6 ft (2 m)
Variation:4.08°E (WMM2015 magnetic declination)
0.10° annual change
Runways:1
Longest:7792 × 148 ft (2375 × 45 m), paved

Time
Time Zone:UTC+2 (DST+3)
Local Time:

Weather
METAR:LGKR 220750Z 00000KT 9999 FEW020 20/16 Q1017 NOSIG
TAF:LGKR 220500Z 2206/2306 VRB03KT 9999 FEW016
BECMG 2212/2214 31013KT
BECMG 2222/2224 16013KT FEW010 SCT020

Related Locations
Nearby:
Farthest:CHT: 11547 mi / 18583 km
Waitangi [Tuuta], CIT, NZ

Find:

   beyond  
but within

Other Information
Maps:
NOTAMs:
Links:
Sources:

  
flag of Greece   

Airport Diagram

Airport diagram for CFU

Larger airport diagram (OBSOLETE) from NGA

Sectional Chart

Flight Planning
at skyvector.com

Satellite Image

Google Maps Satellite view

 

Copyright © 2004-2017 Karl L. Swartz. All rights reserved.
The Great Circle Mapper name and logo are trademarks of the Great Circle Mapper.
All other trademarks mentioned herein belong to their respective owners.
Please see credits for attibutions and further copyright information.

  Follow gcmap on Facebook Follow gcmap on Twitter Follow gcmap on Google+ GCmap on LinkedIn

hCard Microformat

Geo Microformat